Location: Schommer Observatory
(40.5200°N, 74.4500°W)
Time: 13:14:21
(UTC-05:00)

ISS - Pass Details

Date: 14 November 2017
Orbit: 402 x 407 km, 51.6° (Epoch: 24 November)

Event Time Altitude Azimuth Distance (km) Brightness Sun altitude
Exits shadow 05:55:55 11° 311° (NW) 1,379 -1.7 -9.3°
Maximum altitude 05:58:59 70° 35° (NE) 431 -3.7 -8.7°
Drops below altitude 10° 06:02:13 10° 120° (ESE) 1,448 0.5 -8.1°
Sets 06:04:17 0° 123° (ESE) 2,304 1.8 -7.8°
